Regional Weather Roundup
Issued by NWS

Home | Current Version | Previous Version | Graphics & Text | Print | Product List | Glossary On
Versions: 1 2 3 4 5 6 7 8 9 10 11 12 13 14 15 16 17 18 19 20 21 22 23 24 25 26 27 28 29 30 31 32 33 34 35 36 37 38 39 40 41 42 43 44 45 46 47 48 49 50
000
ASUS43 KBIS 241910
RWRND

NORTH DAKOTA REGIONAL WEATHER ROUNDUP
NATIONAL WEATHER SERVICE BISMARCK ND
200 PM CDT WED AUG 24 2016

NOTE: "FAIR" INDICATES FEW OR NO CLOUDS BELOW 12,000 FEET WITH NO
SIGNIFICANT WEATHER AND/OR OBSTRUCTIONS TO VISIBILITY.


NDZ001>003-009>011-017-242000-
NORTHWEST NORTH DAKOTA

CITY           SKY/WX    TMP DP  RH WIND       PRES   REMARKS
WILLISTON      CLOUDY    65  47  52 W24G30    30.03S
MINOT          PTSUNNY   67  49  52 W24G33    29.93R
MINOT AFB      MOSUNNY   67  49  52 W20G33    29.91S
$$

NDZ018>021-031>035-040>046-242000-
SOUTHWEST NORTH DAKOTA

CITY           SKY/WX    TMP DP  RH WIND       PRES   REMARKS
BISMARCK       CLOUDY    73  49  42 W24G33    30.01F
DICKINSON      PTSUNNY   67  42  40 NW22G30   30.05F
GARRISON         N/A     66  47  50 W23G33    29.97S
HETTINGER ARPT MOSUNNY   71  45  39 W28G38    30.10F
$$

NDZ004>008-012>016-024-026-027-054-242000-
NORTHEAST NORTH DAKOTA

CITY           SKY/WX    TMP DP  RH WIND       PRES   REMARKS
GRAND FORKS    PTSUNNY   74  54  49 W20G31    29.87R
GRND FRKS AFB  PTSUNNY   73  53  49 W16G28    29.88S
DEVILS LAKE    PTSUNNY   68  51  54 W21G30    29.91S
$$

NDZ022-023-025-028>030-036>039-047>053-242000-
SOUTHEAST NORTH DAKOTA

CITY           SKY/WX    TMP DP  RH WIND       PRES   REMARKS
FARGO          CLOUDY    76  54  46 W21G26    29.92R
JAMESTOWN      PTSUNNY   70  52  52 W20       29.95F
$$




USA.gov is the U.S. government's official web portal to all federal, state and local government web resources and services.